sat.trackr.live / text

‹ back to catalog

STARLINK-32897

NORAD 62967 · 2025-029V

PAYLOAD ACTIVE UNKNOWN

§ Identity

Operator
Country
US
Launch date
2025-02-11
Launch site
AFWTR
Launch vehicle
Mass (kg)
RCS (m²)

Purposes: comms

External: N2YO · Heavens-Above · Gunter

§ Orbital elements

Epoch: 2026-09-21T17:51:23.764320Z

Period
93.85 min
Inclination
53.1579°
Eccentricity
0.0001075
Mean motion
15.34386286 rev/d
Perigee alt
462.0 km
Apogee alt
463.5 km
Semi-major
6,840.9 km
B*
4.6004e-4
RAAN
37.6018°
Arg perigee
91.2466°
Mean anomaly
268.8660°
Rev number
9,139

§ Raw data

STARLINK-328971 62967U 25029V   26264.74402505  .00015192  00000+0  46004-3 0  99992 62967  53.1579  37.6018 0001075  91.2466 268.8660 15.34386286 91392

JSON: /api/v1/satellites/62967 · /tle

For live sub-satellite position, see the globe view (requires WebGL).

§ Visibility from observer

Set your observer location to see the next 7 days of passes ≥ 10°. The values pass through the URL so the page stays shareable.

No JS? Fill the form by hand. The geolocation button needs JavaScript.